Current Conditions
Data
Offline




Pressure
29.83 (inHG) - 1010.12 (mb)
Visibility

10.0 (mimiles) - 16.1 (km)
   Temperature
72  °F
22°C
68  °F
Dewpoint
88  %
 Humidity
   Wind Speed
0  mph
0  kts
0  km/h
0  m/s
   Wind Direction
Calm
Due North
   Airport Data
KBUU
Location Burlington Municipal Airport 6 mi (9.65 km)
Metar :KBUU 120155Z AUTO 00000KT 10SM 22/21 A2983 RMK AO2 T02190205 PWINO
Sat 11th July 19:55 pm
   Raw Metar Info
Raw METAR is the most common format in the world for the transmission of observational weather data. It is highly standardized through the International Civil Aviation Organization (ICAO), which allows it to be understood throughout most of the world.
   API Info
Data Provided by
https://www.checkwx.com/weather/KBUU
   © Info
CSS/SVG/PHP scripts were developed by weather34.com for use in the weather34 template © 2015-2020

Guide Info provided by Metar-Wikipedia